TimeEST,TemperatureF,Dew PointF,Humidity,Sea Level PressureIn,VisibilityMPH,Wind Direction,Wind SpeedMPH,Gust SpeedMPH,PrecipitationIn,Events,Conditions,WindDirDegrees,DateUTC
12:14 AM,12.0,5.0,73,29.78,10.0,NW,15.0,25.3,N/A,,Overcast,310,2013-02-20 05:14:00
12:33 AM,11.8,5.5,76,29.79,10.0,WNW,15.0,23.0,N/A,Snow,Light Snow,300,2013-02-20 05:33:00
1:33 AM,11.3,5.2,76,29.81,7.0,NW,18.4,27.6,N/A,,Overcast,310,2013-02-20 06:33:00
2:33 AM,10.9,5.2,78,29.85,7.0,NW,11.5,26.5,N/A,Snow,Light Snow,310,2013-02-20 07:33:00
3:13 AM,10.8,4.6,76,29.87,10.0,NW,15.0,23.0,N/A,,Overcast,310,2013-02-20 08:13:00
3:33 AM,10.4,4.1,76,29.87,10.0,NW,12.7,26.5,N/A,,Overcast,320,2013-02-20 08:33:00
3:54 AM,10.4,3.4,73,29.88,10.0,NW,15.0,28.8,N/A,,Overcast,320,2013-02-20 08:54:00
4:13 AM,10.2,3.4,74,29.89,10.0,NW,16.1,27.6,N/A,,Overcast,320,2013-02-20 09:13:00
4:33 AM,9.9,3.0,74,29.90,10.0,NW,13.8,31.1,N/A,,Overcast,320,2013-02-20 09:33:00
4:54 AM,9.5,2.8,74,29.91,10.0,NW,13.8,26.5,N/A,,Overcast,320,2013-02-20 09:54:00
5:13 AM,9.5,3.2,76,29.92,10.0,NW,12.7,24.2,N/A,,Overcast,320,2013-02-20 10:13:00
5:33 AM,9.5,3.2,76,29.93,10.0,NNW,13.8,24.2,N/A,,Overcast,330,2013-02-20 10:33:00
5:54 AM,9.0,2.3,74,29.95,10.0,NNW,11.5,23.0,N/A,,Overcast,330,2013-02-20 10:54:00
6:13 AM,8.6,2.5,76,29.96,7.0,NW,11.5,26.5,N/A,,Overcast,320,2013-02-20 11:13:00
6:33 AM,8.6,2.3,76,29.97,7.0,NNW,15.0,21.9,N/A,,Overcast,340,2013-02-20 11:33:00
7:13 AM,8.1,2.5,78,30.00,2.5,NNW,12.7,18.4,N/A,Snow,Light Snow,330,2013-02-20 12:13:00
7:34 AM,8.1,2.3,77,30.01,4.0,NNW,10.4,18.4,N/A,Snow,Light Snow,340,2013-02-20 12:34:00
8:13 AM,8.1,2.1,77,30.02,4.0,NNW,15.0,20.7,N/A,,Haze,340,2013-02-20 13:13:00
9:13 AM,8.4,2.1,76,30.05,5.0,NNW,11.5,27.6,N/A,,Haze,330,2013-02-20 14:13:00
9:34 AM,8.6,2.1,75,30.06,5.0,North,12.7,19.6,N/A,,Haze,360,2013-02-20 14:34:00
10:14 AM,9.9,1.8,70,30.06,10.0,NNW,13.8,21.9,N/A,,Overcast,330,2013-02-20 15:14:00
10:34 AM,10.4,2.1,69,30.07,10.0,NNW,12.7,21.9,N/A,,Overcast,330,2013-02-20 15:34:00
10:53 AM,10.4,1.9,69,30.08,7.0,NNW,15.0,24.2,N/A,,Overcast,340,2013-02-20 15:53:00
11:14 AM,10.4,3.4,73,30.09,2.0,NNW,11.5,16.1,N/A,Snow,Light Snow,330,2013-02-20 16:14:00
11:34 AM,11.7,2.5,67,30.09,7.0,NNW,12.7,20.7,N/A,,Overcast,330,2013-02-20 16:34:00
11:53 AM,11.8,2.3,66,30.09,7.0,NNW,11.5,19.6,N/A,,Overcast,330,2013-02-20 16:53:00
12:14 PM,11.7,2.8,68,30.10,7.0,NNW,11.5,17.3,N/A,,Overcast,340,2013-02-20 17:14:00
12:33 PM,12.0,3.0,67,30.09,5.0,NW,12.7,17.3,N/A,,Haze,320,2013-02-20 17:33:00
12:53 PM,12.0,2.8,67,30.10,7.0,NW,11.5,20.7,N/A,,Overcast,310,2013-02-20 17:53:00
1:14 PM,12.0,2.3,65,30.10,10.0,NW,12.7,21.9,N/A,,Overcast,310,2013-02-20 18:14:00
1:34 PM,12.6,3.2,66,30.10,10.0,NW,13.8,21.9,N/A,,Overcast,320,2013-02-20 18:34:00
1:53 PM,12.4,3.6,68,30.10,7.0,NW,12.7,17.3,N/A,,Overcast,320,2013-02-20 18:53:00
2:14 PM,12.7,4.3,69,30.09,7.0,NW,13.8,19.6,N/A,,Overcast,320,2013-02-20 19:14:00
2:33 PM,13.1,3.4,65,30.10,10.0,NW,12.7,18.4,N/A,,Overcast,320,2013-02-20 19:33:00
2:53 PM,12.7,4.5,70,30.11,7.0,NW,11.5,17.3,N/A,,Overcast,320,2013-02-20 19:53:00
3:14 PM,12.6,4.3,69,30.12,10.0,NW,10.4,-,N/A,,Overcast,320,2013-02-20 20:14:00
3:33 PM,12.6,5.0,72,30.13,4.0,NW,10.4,18.4,N/A,Snow,Light Snow,310,2013-02-20 20:33:00
3:53 PM,12.4,5.7,75,30.13,1.5,NNW,10.4,17.3,N/A,Snow,Light Snow,330,2013-02-20 20:53:00
4:14 PM,12.2,4.3,71,30.14,5.0,NW,13.8,19.6,N/A,Snow,Light Snow,310,2013-02-20 21:14:00
5:14 PM,12.0,4.6,72,30.16,10.0,NW,10.4,23.0,N/A,,Overcast,320,2013-02-20 22:14:00
6:54 PM,13.1,7.3,78,30.20,10.0,NNW,10.4,20.7,N/A,Snow,Light Snow,330,2013-02-20 23:54:00
7:14 PM,13.5,7.5,77,30.21,10.0,NNW,16.1,25.3,N/A,,Overcast,330,2013-02-21 00:14:00
9:33 PM,13.6,7.7,77,30.22,10.0,NNW,15.0,26.5,N/A,,Overcast,340,2013-02-21 02:33:00
11:54 PM,10.8,5.7,80,30.26,7.0,North,13.8,19.6,N/A,Snow,Light Snow,10,2013-02-21 04:54:00